星链-2494 (STARLINK-2494 )

导读 | 豆包AI

STARLINK-2494是美国SpaceX星链项目中的一颗低轨通信卫星,于2021年5月9日发射升空,属于星链卫星组网的重要组成部分。它运行在近地轨道,依托星链星座的组网设计,为全球用户提供高速低延迟的互联网接入服务,尤其能支持偏远地区的网络覆盖,助力提升全球互联网普及率,目前该卫星仍在轨承担通信服务任务。

基本信息
目录编号:
48487
目录名称:
STARLINK-2494
国际标识:
2021-040BM
轨道中心:
EARTH
卫星名称:
星链-2494
卫星全名:
星链-2494 (STARLINK-2494 )
卫星状态:
在轨 (已飞行1770 天)
发射日期:
2021-05-09 UTC
国别 :
美国 (US)
星等 :
--
轨道信息
数据来源 国际轨道数据 AOE轨道数据
星历时间 2026-03-13T15:39:46+0800
1天前
查看轨道信息
2026-03-14T09:00:00+0800
15小时前
查看轨道信息
半长轴 6853.356km 6853.377km
偏心率 0.0001397 0.0001547
轨道倾角 53.160° 53.159°
近地点辐角 100.816° 67.952°
升交点赤经 177.163° 173.809°
平近点角 259.300° 313.777°
近地点 474.261km 474.179km
远地点 476.177km 476.301km
周期 94.105分钟 94.106分钟
每日圈数 15.301988 15.301919
详细信息
固有亮度:
5
最大亮度:
2.5
卫星平台:
Starlink V1.0
覆盖范围:
全球
运营商:
太空探索技术公司
运营商所在国:
美国
制造商(研发单位):
太空探索技术公司
制造商所在国:
美国
使用方式:
暂无
卫星简介
星链(Starlink)计划是由太空探索技术公司(SpaceX)提出的一个巨型低轨卫星互联网星座项目,计划在2019年至2024年间在太空搭建由约1.2万颗卫星组成的“星链”网络,其中1584颗将部署在地球上空550千米处的近地轨道,并从2020年开始工作。该卫星仍在工作。
2D轨道图
3D轨道图
轨道高度分析图
轨道倾角分析图
轨道综合分析图
查看轨道综合分析图